Year,Month,Day,Hour,Minute,Value (Times are PST for temperature in C)
2016,02,29,00,00,5.70
2016,02,29,00,01,5.70
2016,02,29,00,02,5.70
2016,02,29,00,03,5.60
2016,02,29,00,04,5.50
2016,02,29,00,05,5.50
2016,02,29,00,06,5.40
2016,02,29,00,07,5.40
2016,02,29,00,08,5.50
2016,02,29,00,09,5.60
2016,02,29,00,10,5.60
2016,02,29,00,11,5.60
2016,02,29,00,12,5.70
2016,02,29,00,13,5.70
2016,02,29,00,14,5.60
2016,02,29,00,15,5.50
2016,02,29,00,16,5.40
2016,02,29,00,17,5.30
2016,02,29,00,18,5.30
2016,02,29,00,19,5.20
2016,02,29,00,20,5.20
2016,02,29,00,21,5.20
2016,02,29,00,22,5.20
2016,02,29,00,23,5.20
2016,02,29,00,24,5.20
2016,02,29,00,25,5.30
2016,02,29,00,26,5.40
2016,02,29,00,27,5.40
2016,02,29,00,28,5.50
2016,02,29,00,29,5.60
2016,02,29,00,30,5.80
2016,02,29,00,31,5.90
2016,02,29,00,32,6.00
2016,02,29,00,33,6.00
2016,02,29,00,34,6.10
2016,02,29,00,35,6.20
2016,02,29,00,36,6.20
2016,02,29,00,37,6.30
2016,02,29,00,38,6.20
2016,02,29,00,39,6.20
2016,02,29,00,40,6.20
2016,02,29,00,41,6.10
2016,02,29,00,42,6.10
2016,02,29,00,43,6.00
2016,02,29,00,44,6.00
2016,02,29,00,45,5.90
2016,02,29,00,46,5.90
2016,02,29,00,47,5.90
2016,02,29,00,48,5.90
2016,02,29,00,49,6.00
2016,02,29,00,50,6.10
2016,02,29,00,51,6.10
2016,02,29,00,52,6.20
2016,02,29,00,53,6.20
2016,02,29,00,54,6.20
2016,02,29,00,55,6.10
2016,02,29,00,56,6.10
2016,02,29,00,57,6.00
2016,02,29,00,58,5.90
2016,02,29,00,59,5.80
2016,02,29,01,00,5.80
2016,02,29,01,01,5.70
2016,02,29,01,02,5.70
2016,02,29,01,03,5.70
2016,02,29,01,04,5.60
2016,02,29,01,05,5.60
2016,02,29,01,06,5.60
2016,02,29,01,07,5.60
2016,02,29,01,08,5.60
2016,02,29,01,09,5.60
2016,02,29,01,10,5.60
2016,02,29,01,11,5.60
2016,02,29,01,12,5.60
2016,02,29,01,13,5.60
2016,02,29,01,14,5.60
2016,02,29,01,15,5.60
2016,02,29,01,16,5.60
2016,02,29,01,17,5.50
2016,02,29,01,18,5.50
2016,02,29,01,19,5.50
2016,02,29,01,20,5.50
2016,02,29,01,21,5.40
2016,02,29,01,22,5.40
2016,02,29,01,23,5.40
2016,02,29,01,24,5.30
2016,02,29,01,25,5.30
2016,02,29,01,26,5.30
2016,02,29,01,27,5.30
2016,02,29,01,28,5.30
2016,02,29,01,29,5.20
2016,02,29,01,30,5.20
2016,02,29,01,31,5.20
2016,02,29,01,32,5.20
2016,02,29,01,33,5.20
2016,02,29,01,34,5.20
2016,02,29,01,35,5.20
2016,02,29,01,36,5.20
2016,02,29,01,37,5.20
2016,02,29,01,38,5.20
2016,02,29,01,39,5.10
2016,02,29,01,40,5.10
2016,02,29,01,41,5.10
2016,02,29,01,42,5.00
2016,02,29,01,43,5.00
2016,02,29,01,44,5.00
2016,02,29,01,45,5.00
2016,02,29,01,46,4.90
2016,02,29,01,47,5.00
2016,02,29,01,48,5.00
2016,02,29,01,49,5.00
2016,02,29,01,50,4.90
2016,02,29,01,51,4.90
2016,02,29,01,52,4.90
2016,02,29,01,53,5.00
2016,02,29,01,54,5.00
2016,02,29,01,55,5.00
2016,02,29,01,56,5.10
2016,02,29,01,57,5.10
2016,02,29,01,58,5.10
2016,02,29,01,59,5.10
2016,02,29,02,00,5.10
2016,02,29,02,01,5.20
2016,02,29,02,02,5.20
2016,02,29,02,03,5.10
2016,02,29,02,04,5.10
2016,02,29,02,05,5.10
2016,02,29,02,06,5.10
2016,02,29,02,07,5.20
2016,02,29,02,08,5.20
2016,02,29,02,09,5.30
2016,02,29,02,10,5.30
2016,02,29,02,11,5.40
2016,02,29,02,12,5.50
2016,02,29,02,13,5.60
2016,02,29,02,14,5.70
2016,02,29,02,15,5.70
2016,02,29,02,16,5.70
2016,02,29,02,17,5.50
2016,02,29,02,18,5.40
2016,02,29,02,19,5.30
2016,02,29,02,20,5.20
2016,02,29,02,21,5.10
2016,02,29,02,22,5.00
2016,02,29,02,23,4.90
2016,02,29,02,24,4.80
2016,02,29,02,25,4.70
2016,02,29,02,26,4.60
2016,02,29,02,27,4.50
2016,02,29,02,28,4.40
2016,02,29,02,29,4.40
2016,02,29,02,30,4.30
2016,02,29,02,31,4.30
2016,02,29,02,32,4.30
2016,02,29,02,33,4.20
2016,02,29,02,34,4.20
2016,02,29,02,35,4.20
2016,02,29,02,36,4.20
2016,02,29,02,37,4.20
2016,02,29,02,38,4.20
2016,02,29,02,39,4.20
2016,02,29,02,40,4.20
2016,02,29,02,41,4.20
2016,02,29,02,42,4.20
2016,02,29,02,43,4.30
2016,02,29,02,44,4.30
2016,02,29,02,45,4.30
2016,02,29,02,46,4.40
2016,02,29,02,47,4.40
2016,02,29,02,48,4.50
2016,02,29,02,49,4.60
2016,02,29,02,50,4.60
2016,02,29,02,51,4.60
2016,02,29,02,52,4.60
2016,02,29,02,53,4.60
2016,02,29,02,54,4.50
2016,02,29,02,55,4.50
2016,02,29,02,56,4.50
2016,02,29,02,57,4.40
2016,02,29,02,58,4.40
2016,02,29,02,59,4.40
2016,02,29,03,00,4.40
2016,02,29,03,01,4.40
2016,02,29,03,02,4.40
2016,02,29,03,03,4.50
2016,02,29,03,04,4.60
2016,02,29,03,05,4.60
2016,02,29,03,06,4.60
2016,02,29,03,07,4.60
2016,02,29,03,08,4.60
2016,02,29,03,09,4.50
2016,02,29,03,10,4.50
2016,02,29,03,11,4.50
2016,02,29,03,12,4.60
2016,02,29,03,13,4.70
2016,02,29,03,14,4.70
2016,02,29,03,15,4.70
2016,02,29,03,16,4.80
2016,02,29,03,17,4.80
2016,02,29,03,18,4.80
2016,02,29,03,19,4.80
2016,02,29,03,20,4.70
2016,02,29,03,21,4.70
2016,02,29,03,22,4.70
2016,02,29,03,23,4.80
2016,02,29,03,24,5.00
2016,02,29,03,25,5.30
2016,02,29,03,26,5.50
2016,02,29,03,27,5.70
2016,02,29,03,28,5.80
2016,02,29,03,29,5.90
2016,02,29,03,30,6.00
2016,02,29,03,31,6.10
2016,02,29,03,32,6.20
2016,02,29,03,33,6.20
2016,02,29,03,34,6.30
2016,02,29,03,35,6.30
2016,02,29,03,36,6.30
2016,02,29,03,37,6.10
2016,02,29,03,38,5.90
2016,02,29,03,39,5.80
2016,02,29,03,40,5.80
2016,02,29,03,41,5.80
2016,02,29,03,42,5.80
2016,02,29,03,43,5.80
2016,02,29,03,44,5.90
2016,02,29,03,45,6.10
2016,02,29,03,46,6.10
2016,02,29,03,47,6.20
2016,02,29,03,48,6.30
2016,02,29,03,49,6.20
2016,02,29,03,50,6.20
2016,02,29,03,51,6.20
2016,02,29,03,52,6.20
2016,02,29,03,53,6.20
2016,02,29,03,54,6.20
2016,02,29,03,55,6.20
2016,02,29,03,56,6.20
2016,02,29,03,57,6.20
2016,02,29,03,58,6.10
2016,02,29,03,59,6.00
2016,02,29,04,00,6.00
2016,02,29,04,01,5.90
2016,02,29,04,02,5.70
2016,02,29,04,03,5.60
2016,02,29,04,04,5.60
2016,02,29,04,05,5.50
2016,02,29,04,06,5.60
2016,02,29,04,07,5.60
2016,02,29,04,08,5.70
2016,02,29,04,09,5.70
2016,02,29,04,10,5.70
2016,02,29,04,11,5.60
2016,02,29,04,12,5.50
2016,02,29,04,13,5.40
2016,02,29,04,14,5.30
2016,02,29,04,15,5.30
2016,02,29,04,16,5.20
2016,02,29,04,17,5.10
2016,02,29,04,18,5.10
2016,02,29,04,19,5.00
2016,02,29,04,20,4.90
2016,02,29,04,21,4.90
2016,02,29,04,22,4.90
2016,02,29,04,23,5.00
2016,02,29,04,24,5.00
2016,02,29,04,25,5.10
2016,02,29,04,26,5.10
2016,02,29,04,27,5.20
2016,02,29,04,28,5.20
2016,02,29,04,29,5.30
2016,02,29,04,30,5.30
2016,02,29,04,31,5.40
2016,02,29,04,32,5.40
2016,02,29,04,33,5.40
2016,02,29,04,34,5.50
2016,02,29,04,35,5.60
2016,02,29,04,36,5.60
2016,02,29,04,37,5.60
2016,02,29,04,38,5.70
2016,02,29,04,39,5.70
2016,02,29,04,40,5.70
2016,02,29,04,41,5.80
2016,02,29,04,42,5.80
2016,02,29,04,43,5.80
2016,02,29,04,44,5.90
2016,02,29,04,45,5.90
2016,02,29,04,46,5.90
2016,02,29,04,47,6.00
2016,02,29,04,48,6.00
2016,02,29,04,49,6.10
2016,02,29,04,50,6.10
2016,02,29,04,51,6.10
2016,02,29,04,52,6.10
2016,02,29,04,53,6.10
2016,02,29,04,54,6.20
2016,02,29,04,55,6.20
2016,02,29,04,56,6.10
2016,02,29,04,57,5.90
2016,02,29,04,58,5.60
2016,02,29,04,59,5.20
2016,02,29,05,00,5.00
2016,02,29,05,01,4.90
2016,02,29,05,02,4.90
2016,02,29,05,03,4.90
2016,02,29,05,04,4.80
2016,02,29,05,05,4.70
2016,02,29,05,06,4.50
2016,02,29,05,07,4.40
2016,02,29,05,08,4.30
2016,02,29,05,09,4.30
2016,02,29,05,10,4.40
2016,02,29,05,11,4.40
2016,02,29,05,12,4.50
2016,02,29,05,13,4.40
2016,02,29,05,14,4.50
2016,02,29,05,15,4.50
2016,02,29,05,16,4.60
2016,02,29,05,17,4.80
2016,02,29,05,18,4.90
2016,02,29,05,19,5.20
2016,02,29,05,20,5.40
2016,02,29,05,21,5.60
2016,02,29,05,22,5.80
2016,02,29,05,23,6.00
2016,02,29,05,24,6.00
2016,02,29,05,25,6.10
2016,02,29,05,26,6.10
2016,02,29,05,27,6.20
2016,02,29,05,28,6.20
2016,02,29,05,29,6.30
2016,02,29,05,30,6.30
2016,02,29,05,31,6.30
2016,02,29,05,32,6.30
2016,02,29,05,33,6.30
2016,02,29,05,34,6.30
2016,02,29,05,35,6.30
2016,02,29,05,36,6.30
2016,02,29,05,37,6.30
2016,02,29,05,38,6.30
2016,02,29,05,39,6.30
2016,02,29,05,40,6.30
2016,02,29,05,41,6.30
2016,02,29,05,42,6.30
2016,02,29,05,43,6.30
2016,02,29,05,44,6.20
2016,02,29,05,45,6.20
2016,02,29,05,46,6.20
2016,02,29,05,47,6.10
2016,02,29,05,48,6.10
2016,02,29,05,49,6.10
2016,02,29,05,50,6.10
2016,02,29,05,51,6.10
2016,02,29,05,52,6.20
2016,02,29,05,53,6.20
2016,02,29,05,54,6.20
2016,02,29,05,55,6.30
2016,02,29,05,56,6.30
2016,02,29,05,57,6.30
2016,02,29,05,58,6.30
2016,02,29,05,59,6.30
2016,02,29,06,00,6.30
2016,02,29,06,01,6.30
2016,02,29,06,02,6.30
2016,02,29,06,03,6.30
2016,02,29,06,04,6.30
2016,02,29,06,05,6.30
2016,02,29,06,06,6.30
2016,02,29,06,07,6.30
2016,02,29,06,08,6.30
2016,02,29,06,09,6.20
2016,02,29,06,10,6.20
2016,02,29,06,11,6.20
2016,02,29,06,12,6.20
2016,02,29,06,13,6.20
2016,02,29,06,14,6.20
2016,02,29,06,15,6.10
2016,02,29,06,16,6.10
2016,02,29,06,17,6.10
2016,02,29,06,18,6.10
2016,02,29,06,19,6.10
2016,02,29,06,20,6.10
2016,02,29,06,21,6.10
2016,02,29,06,22,6.10
2016,02,29,06,23,6.10
2016,02,29,06,24,6.10
2016,02,29,06,25,6.10
2016,02,29,06,26,6.10
2016,02,29,06,27,6.10
2016,02,29,06,28,6.20
2016,02,29,06,29,6.20
2016,02,29,06,30,6.20
2016,02,29,06,31,6.20
2016,02,29,06,32,6.20
2016,02,29,06,33,6.20
2016,02,29,06,34,6.20
2016,02,29,06,35,6.10
2016,02,29,06,36,6.10
2016,02,29,06,37,6.10
2016,02,29,06,38,6.10
2016,02,29,06,39,6.00
2016,02,29,06,40,6.00
2016,02,29,06,41,6.10
2016,02,29,06,42,6.10
2016,02,29,06,43,6.10
2016,02,29,06,44,6.00
2016,02,29,06,45,6.00
2016,02,29,06,46,6.00
2016,02,29,06,47,5.90
2016,02,29,06,48,5.90
2016,02,29,06,49,5.90
2016,02,29,06,50,5.90
2016,02,29,06,51,5.90
2016,02,29,06,52,5.80
2016,02,29,06,53,5.80
2016,02,29,06,54,5.90
2016,02,29,06,55,5.90
2016,02,29,06,56,5.80
2016,02,29,06,57,5.80
2016,02,29,06,58,5.80
2016,02,29,06,59,5.80
2016,02,29,07,00,5.80
2016,02,29,07,01,5.90
2016,02,29,07,02,5.90
2016,02,29,07,03,6.00
2016,02,29,07,04,6.10
2016,02,29,07,05,6.20
2016,02,29,07,06,6.20
2016,02,29,07,07,6.30
2016,02,29,07,08,6.30
2016,02,29,07,09,6.40
2016,02,29,07,10,6.40
2016,02,29,07,11,6.40
2016,02,29,07,12,6.40
2016,02,29,07,13,6.30
2016,02,29,07,14,6.30
2016,02,29,07,15,6.30
2016,02,29,07,16,6.30
2016,02,29,07,17,6.30
2016,02,29,07,18,6.30
2016,02,29,07,19,6.30
2016,02,29,07,20,6.40
2016,02,29,07,21,6.40
2016,02,29,07,22,6.40
2016,02,29,07,23,6.50
2016,02,29,07,24,6.50
2016,02,29,07,25,6.50
2016,02,29,07,26,6.50
2016,02,29,07,27,6.60
2016,02,29,07,28,6.50
2016,02,29,07,29,6.40
2016,02,29,07,30,6.40
2016,02,29,07,31,6.30
2016,02,29,07,32,6.10
2016,02,29,07,33,6.00
2016,02,29,07,34,5.90
2016,02,29,07,35,5.80
2016,02,29,07,36,5.60
2016,02,29,07,37,5.40
2016,02,29,07,38,5.30
2016,02,29,07,39,5.20
2016,02,29,07,40,5.10
2016,02,29,07,41,5.00
2016,02,29,07,42,4.90
2016,02,29,07,43,4.80
2016,02,29,07,44,4.60
2016,02,29,07,45,4.50
2016,02,29,07,46,4.40
2016,02,29,07,47,4.30
2016,02,29,07,48,4.30
2016,02,29,07,49,4.30
2016,02,29,07,50,4.30
2016,02,29,07,51,4.30
2016,02,29,07,52,4.30
2016,02,29,07,53,4.30
2016,02,29,07,54,4.40
2016,02,29,07,55,4.40
2016,02,29,07,56,4.50
2016,02,29,07,57,4.60
2016,02,29,07,58,4.60
2016,02,29,07,59,4.70
2016,02,29,08,00,4.80
2016,02,29,08,01,4.90
2016,02,29,08,02,5.10
2016,02,29,08,03,5.10
2016,02,29,08,04,5.20
2016,02,29,08,05,5.30
2016,02,29,08,06,5.40
2016,02,29,08,07,5.50
2016,02,29,08,08,5.60
2016,02,29,08,09,5.60
2016,02,29,08,10,5.70
2016,02,29,08,11,5.70
2016,02,29,08,12,5.70
2016,02,29,08,13,5.60
2016,02,29,08,14,5.50
2016,02,29,08,15,5.40
2016,02,29,08,16,5.30
2016,02,29,08,17,5.20
2016,02,29,08,18,5.20
2016,02,29,08,19,5.10
2016,02,29,08,20,5.00
2016,02,29,08,21,5.00
2016,02,29,08,22,4.90
2016,02,29,08,23,5.00
2016,02,29,08,24,5.00
2016,02,29,08,25,5.10
2016,02,29,08,26,5.10
2016,02,29,08,27,5.10
2016,02,29,08,28,5.10
2016,02,29,08,29,5.10
2016,02,29,08,30,5.00
2016,02,29,08,31,5.10
2016,02,29,08,32,5.00
2016,02,29,08,33,5.00
2016,02,29,08,34,5.00
2016,02,29,08,35,5.00
2016,02,29,08,36,5.00
2016,02,29,08,37,5.00
2016,02,29,08,38,5.10
2016,02,29,08,39,5.10
2016,02,29,08,40,5.20
2016,02,29,08,41,5.30
2016,02,29,08,42,5.50
2016,02,29,08,43,5.60
2016,02,29,08,44,5.60
2016,02,29,08,45,5.70
2016,02,29,08,46,5.70
2016,02,29,08,47,5.70
2016,02,29,08,48,5.70
2016,02,29,08,49,5.80
2016,02,29,08,50,5.80
2016,02,29,08,51,5.90
2016,02,29,08,52,6.00
2016,02,29,08,53,6.10
2016,02,29,08,54,6.20
2016,02,29,08,55,6.20
2016,02,29,08,56,6.10
2016,02,29,08,57,6.00
2016,02,29,08,58,6.00
2016,02,29,08,59,6.00
2016,02,29,09,00,6.00
2016,02,29,09,01,6.10
2016,02,29,09,02,6.20
2016,02,29,09,03,6.30
2016,02,29,09,04,6.30
2016,02,29,09,05,6.40
2016,02,29,09,06,6.50
2016,02,29,09,07,6.50
2016,02,29,09,08,6.50
2016,02,29,09,09,6.50
2016,02,29,09,10,6.40
2016,02,29,09,11,6.30
2016,02,29,09,12,6.30
2016,02,29,09,13,6.30
2016,02,29,09,14,6.20
2016,02,29,09,15,6.30
2016,02,29,09,16,6.30
2016,02,29,09,17,6.30
2016,02,29,09,18,6.30
2016,02,29,09,19,6.40
2016,02,29,09,20,6.50
2016,02,29,09,21,6.60
2016,02,29,09,22,6.60
2016,02,29,09,23,6.70
2016,02,29,09,24,6.80
2016,02,29,09,25,7.00
2016,02,29,09,26,7.10
2016,02,29,09,27,7.20
2016,02,29,09,28,7.20
2016,02,29,09,29,7.30
2016,02,29,09,30,7.30
2016,02,29,09,31,7.30
2016,02,29,09,32,7.40
2016,02,29,09,33,7.40
2016,02,29,09,34,7.40
2016,02,29,09,35,7.50
2016,02,29,09,36,7.50
2016,02,29,09,37,7.60
2016,02,29,09,38,7.60
2016,02,29,09,39,7.60
2016,02,29,09,40,7.60
2016,02,29,09,41,7.60
2016,02,29,09,42,7.60
2016,02,29,09,43,7.60
2016,02,29,09,44,7.70
2016,02,29,09,45,7.70
2016,02,29,09,46,7.80
2016,02,29,09,47,7.80
2016,02,29,09,48,7.90
2016,02,29,09,49,8.00
2016,02,29,09,50,8.00
2016,02,29,09,51,8.00
2016,02,29,09,52,8.10
2016,02,29,09,53,8.10
2016,02,29,09,54,8.10
2016,02,29,09,55,8.10
2016,02,29,09,56,8.20
2016,02,29,09,57,8.20
2016,02,29,09,58,8.30
2016,02,29,09,59,8.30
2016,02,29,10,00,8.30
2016,02,29,10,01,8.40
2016,02,29,10,02,8.40
2016,02,29,10,03,8.40
2016,02,29,10,04,8.40
2016,02,29,10,05,8.40
2016,02,29,10,06,8.40
2016,02,29,10,07,8.50
2016,02,29,10,08,8.50
2016,02,29,10,09,8.50
2016,02,29,10,10,8.60
2016,02,29,10,11,8.60
2016,02,29,10,12,8.60
2016,02,29,10,13,8.50
2016,02,29,10,14,8.50
2016,02,29,10,15,8.40
2016,02,29,10,16,8.50
2016,02,29,10,17,8.50
2016,02,29,10,18,8.60
2016,02,29,10,19,8.70
2016,02,29,10,20,8.80
2016,02,29,10,21,8.80
2016,02,29,10,22,8.90
2016,02,29,10,23,8.90
2016,02,29,10,24,8.90
2016,02,29,10,25,8.90
2016,02,29,10,26,8.80
2016,02,29,10,27,8.80
2016,02,29,10,28,8.80
2016,02,29,10,29,8.80
2016,02,29,10,30,8.80
2016,02,29,10,31,8.90
2016,02,29,10,32,8.90
2016,02,29,10,33,8.90
2016,02,29,10,34,8.90
2016,02,29,10,35,8.80
2016,02,29,10,36,8.80
2016,02,29,10,37,8.80
2016,02,29,10,38,8.80
2016,02,29,10,39,8.90
2016,02,29,10,40,9.00
2016,02,29,10,41,9.10
2016,02,29,10,42,9.20
2016,02,29,10,43,9.20
2016,02,29,10,44,9.30
2016,02,29,10,45,9.30
2016,02,29,10,46,9.20
2016,02,29,10,47,9.20
2016,02,29,10,48,9.20
2016,02,29,10,49,9.30
2016,02,29,10,50,9.30
2016,02,29,10,51,9.30
2016,02,29,10,52,9.30
2016,02,29,10,53,9.30
2016,02,29,10,54,9.20
2016,02,29,10,55,9.20
2016,02,29,10,56,9.30
2016,02,29,10,57,9.30
2016,02,29,10,58,9.30
2016,02,29,10,59,9.30
2016,02,29,11,00,9.30
2016,02,29,11,01,9.30
2016,02,29,11,02,9.30
2016,02,29,11,03,9.30
2016,02,29,11,04,9.30
2016,02,29,11,05,9.30
2016,02,29,11,06,9.40
2016,02,29,11,07,9.50
2016,02,29,11,08,9.50
2016,02,29,11,09,9.60
2016,02,29,11,10,9.60
2016,02,29,11,11,9.50
2016,02,29,11,12,9.50
2016,02,29,11,13,9.40
2016,02,29,11,14,9.30
2016,02,29,11,15,9.30
2016,02,29,11,16,9.30
2016,02,29,11,17,9.20
2016,02,29,11,18,9.20
2016,02,29,11,19,9.20
2016,02,29,11,20,9.20
2016,02,29,11,21,9.20
2016,02,29,11,22,9.20
2016,02,29,11,23,9.20
2016,02,29,11,24,9.10
2016,02,29,11,25,9.10
2016,02,29,11,26,9.20
2016,02,29,11,27,9.30
2016,02,29,11,28,9.40
2016,02,29,11,29,9.40
2016,02,29,11,30,9.40
2016,02,29,11,31,9.40
2016,02,29,11,32,9.40
2016,02,29,11,33,9.40
2016,02,29,11,34,9.50
2016,02,29,11,35,9.50
2016,02,29,11,36,9.60
2016,02,29,11,37,9.60
2016,02,29,11,38,9.50
2016,02,29,11,39,9.50
2016,02,29,11,40,9.40
2016,02,29,11,41,9.30
2016,02,29,11,42,9.30
2016,02,29,11,43,9.30
2016,02,29,11,44,9.30
2016,02,29,11,45,9.30
2016,02,29,11,46,9.30
2016,02,29,11,47,9.30
2016,02,29,11,48,9.20
2016,02,29,11,49,9.20
2016,02,29,11,50,9.20
2016,02,29,11,51,9.20
2016,02,29,11,52,9.20
2016,02,29,11,53,9.20
2016,02,29,11,54,9.20
2016,02,29,11,55,9.20
2016,02,29,11,56,9.20
2016,02,29,11,57,9.30
2016,02,29,11,58,9.30
2016,02,29,11,59,9.30
2016,02,29,12,00,9.30
2016,02,29,12,01,9.30
2016,02,29,12,02,9.30
2016,02,29,12,03,9.30
2016,02,29,12,04,9.30
2016,02,29,12,05,9.20
2016,02,29,12,06,9.10
2016,02,29,12,07,9.10
2016,02,29,12,08,9.10
2016,02,29,12,09,9.20
2016,02,29,12,10,9.20
2016,02,29,12,11,9.30
2016,02,29,12,12,9.30
2016,02,29,12,13,9.30
2016,02,29,12,14,9.30
2016,02,29,12,15,9.20
2016,02,29,12,16,9.20
2016,02,29,12,17,9.30
2016,02,29,12,18,9.30
2016,02,29,12,19,9.30
2016,02,29,12,20,9.30
2016,02,29,12,21,9.30
2016,02,29,12,22,9.30
2016,02,29,12,23,9.40
2016,02,29,12,24,9.40
2016,02,29,12,25,9.40
2016,02,29,12,26,9.30
2016,02,29,12,27,9.30
2016,02,29,12,28,9.30
2016,02,29,12,29,9.20
2016,02,29,12,30,9.20
2016,02,29,12,31,9.20
2016,02,29,12,32,9.20
2016,02,29,12,33,9.20
2016,02,29,12,34,9.20
2016,02,29,12,35,9.20
2016,02,29,12,36,9.20
2016,02,29,12,37,9.20
2016,02,29,12,38,9.20
2016,02,29,12,39,9.20
2016,02,29,12,40,9.20
2016,02,29,12,41,9.20
2016,02,29,12,42,9.20
2016,02,29,12,43,9.20
2016,02,29,12,44,9.20
2016,02,29,12,45,9.20
2016,02,29,12,46,9.20
2016,02,29,12,47,9.20
2016,02,29,12,48,9.20
2016,02,29,12,49,9.20
2016,02,29,12,50,9.20
2016,02,29,12,51,9.30
2016,02,29,12,52,9.20
2016,02,29,12,53,9.20
2016,02,29,12,54,9.20
2016,02,29,12,55,9.20
2016,02,29,12,56,9.10
2016,02,29,12,57,9.10
2016,02,29,12,58,9.10
2016,02,29,12,59,9.10
2016,02,29,13,00,9.10
2016,02,29,13,01,9.10
2016,02,29,13,02,9.00
2016,02,29,13,03,9.00
2016,02,29,13,04,8.90
2016,02,29,13,05,8.90
2016,02,29,13,06,8.90
2016,02,29,13,07,8.80
2016,02,29,13,08,8.80
2016,02,29,13,09,8.80
2016,02,29,13,10,8.80
2016,02,29,13,11,8.80
2016,02,29,13,12,8.80
2016,02,29,13,13,8.80
2016,02,29,13,14,8.80
2016,02,29,13,15,8.80
2016,02,29,13,16,8.80
2016,02,29,13,17,8.80
2016,02,29,13,18,8.80
2016,02,29,13,19,8.90
2016,02,29,13,20,8.90
2016,02,29,13,21,8.90
2016,02,29,13,22,9.00
2016,02,29,13,23,9.00
2016,02,29,13,24,9.00
2016,02,29,13,25,9.00
2016,02,29,13,26,8.90
2016,02,29,13,27,8.90
2016,02,29,13,28,8.90
2016,02,29,13,29,8.90
2016,02,29,13,30,8.90
2016,02,29,13,31,9.00
2016,02,29,13,32,9.00
2016,02,29,13,33,9.00
2016,02,29,13,34,9.00
2016,02,29,13,35,9.00
2016,02,29,13,36,8.90
2016,02,29,13,37,9.00
2016,02,29,13,38,9.00
2016,02,29,13,39,9.00
2016,02,29,13,40,9.00
2016,02,29,13,41,9.00
2016,02,29,13,42,9.00
2016,02,29,13,43,9.00
2016,02,29,13,44,9.10
2016,02,29,13,45,9.10
2016,02,29,13,46,9.10
2016,02,29,13,47,9.10
2016,02,29,13,48,9.00
2016,02,29,13,49,8.90
2016,02,29,13,50,8.90
2016,02,29,13,51,8.90
2016,02,29,13,52,8.90
2016,02,29,13,53,8.80
2016,02,29,13,54,8.80
2016,02,29,13,55,8.80
2016,02,29,13,56,8.80
2016,02,29,13,57,8.80
2016,02,29,13,58,8.80
2016,02,29,13,59,8.70
2016,02,29,14,00,8.70
2016,02,29,14,01,8.60
2016,02,29,14,02,8.50
2016,02,29,14,03,8.50
2016,02,29,14,04,8.40
2016,02,29,14,05,8.50
2016,02,29,14,06,8.50
2016,02,29,14,07,8.60
2016,02,29,14,08,8.70
2016,02,29,14,09,8.80
2016,02,29,14,10,8.80
2016,02,29,14,11,8.80
2016,02,29,14,12,8.80
2016,02,29,14,13,8.80
2016,02,29,14,14,8.80
2016,02,29,14,15,8.80
2016,02,29,14,16,8.70
2016,02,29,14,17,8.60
2016,02,29,14,18,8.60
2016,02,29,14,19,8.50
2016,02,29,14,20,8.50
2016,02,29,14,21,8.40
2016,02,29,14,22,8.40
2016,02,29,14,23,8.40
2016,02,29,14,24,8.50
2016,02,29,14,25,8.50
2016,02,29,14,26,8.60
2016,02,29,14,27,8.60
2016,02,29,14,28,8.60
2016,02,29,14,29,8.50
2016,02,29,14,30,8.50
2016,02,29,14,31,8.50
2016,02,29,14,32,8.50
2016,02,29,14,33,8.50
2016,02,29,14,34,8.60
2016,02,29,14,35,8.50
2016,02,29,14,36,8.50
2016,02,29,14,37,8.50
2016,02,29,14,38,8.50
2016,02,29,14,39,8.40
2016,02,29,14,40,8.40
2016,02,29,14,41,8.50
2016,02,29,14,42,8.50
2016,02,29,14,43,8.50
2016,02,29,14,44,8.60
2016,02,29,14,45,8.60
2016,02,29,14,46,8.60
2016,02,29,14,47,8.50
2016,02,29,14,48,8.50
2016,02,29,14,49,8.50
2016,02,29,14,50,8.40
2016,02,29,14,51,8.40
2016,02,29,14,52,8.50
2016,02,29,14,53,8.50
2016,02,29,14,54,8.50
2016,02,29,14,55,8.50
2016,02,29,14,56,8.50
2016,02,29,14,57,8.50
2016,02,29,14,58,8.60
2016,02,29,14,59,8.60
2016,02,29,15,00,8.60
2016,02,29,15,01,8.60
2016,02,29,15,02,8.60
2016,02,29,15,03,8.60
2016,02,29,15,04,8.60
2016,02,29,15,05,8.50
2016,02,29,15,06,8.50
2016,02,29,15,07,8.50
2016,02,29,15,08,8.40
2016,02,29,15,09,8.40
2016,02,29,15,10,8.40
2016,02,29,15,11,8.30
2016,02,29,15,12,8.30
2016,02,29,15,13,8.30
2016,02,29,15,14,8.30
2016,02,29,15,15,8.30
2016,02,29,15,16,8.30
2016,02,29,15,17,8.30
2016,02,29,15,18,8.30
2016,02,29,15,19,8.30
2016,02,29,15,20,8.30
2016,02,29,15,21,8.30
2016,02,29,15,22,8.40
2016,02,29,15,23,8.40
2016,02,29,15,24,8.40
2016,02,29,15,25,8.40
2016,02,29,15,26,8.40
2016,02,29,15,27,8.40
2016,02,29,15,28,8.40
2016,02,29,15,29,8.30
2016,02,29,15,30,8.30
2016,02,29,15,31,8.30
2016,02,29,15,32,8.30
2016,02,29,15,33,8.30
2016,02,29,15,34,8.30
2016,02,29,15,35,8.30
2016,02,29,15,36,8.20
2016,02,29,15,37,8.20
2016,02,29,15,38,8.30
2016,02,29,15,39,8.30
2016,02,29,15,40,8.20
2016,02,29,15,41,8.20
2016,02,29,15,42,8.20
2016,02,29,15,43,8.20
2016,02,29,15,44,8.10
2016,02,29,15,45,8.10
2016,02,29,15,46,8.00
2016,02,29,15,47,8.00
2016,02,29,15,48,8.00
2016,02,29,15,49,8.00
2016,02,29,15,50,8.00
2016,02,29,15,51,8.00
2016,02,29,15,52,8.00
2016,02,29,15,53,8.00
2016,02,29,15,54,8.10
2016,02,29,15,55,8.10
2016,02,29,15,56,8.10
2016,02,29,15,57,8.00
2016,02,29,15,58,8.00
2016,02,29,15,59,8.00
2016,02,29,16,00,8.00
2016,02,29,16,01,8.00
2016,02,29,16,02,8.00
2016,02,29,16,03,7.90
2016,02,29,16,04,7.90
2016,02,29,16,05,7.90
2016,02,29,16,06,7.90
2016,02,29,16,07,7.90
2016,02,29,16,08,7.90
2016,02,29,16,09,7.90
2016,02,29,16,10,7.90
2016,02,29,16,11,7.90
2016,02,29,16,12,7.90
2016,02,29,16,13,7.90
2016,02,29,16,14,7.90
2016,02,29,16,15,7.90
2016,02,29,16,16,7.90
2016,02,29,16,17,7.90
2016,02,29,16,18,7.90
2016,02,29,16,19,7.80
2016,02,29,16,20,7.80
2016,02,29,16,21,7.80
2016,02,29,16,22,7.80
2016,02,29,16,23,7.80
2016,02,29,16,24,7.90
2016,02,29,16,25,7.90
2016,02,29,16,26,7.90
2016,02,29,16,27,7.90
2016,02,29,16,28,7.90
2016,02,29,16,29,7.90
2016,02,29,16,30,7.90
2016,02,29,16,31,7.90
2016,02,29,16,32,7.90
2016,02,29,16,33,7.90
2016,02,29,16,34,7.90
2016,02,29,16,35,7.80
2016,02,29,16,36,7.80
2016,02,29,16,37,7.80
2016,02,29,16,38,7.80
2016,02,29,16,39,7.80
2016,02,29,16,40,7.80
2016,02,29,16,41,7.80
2016,02,29,16,42,7.80
2016,02,29,16,43,7.80
2016,02,29,16,44,7.80
2016,02,29,16,45,7.80
2016,02,29,16,46,7.80
2016,02,29,16,47,7.80
2016,02,29,16,48,7.80
2016,02,29,16,49,7.80
2016,02,29,16,50,7.80
2016,02,29,16,51,7.80
2016,02,29,16,52,7.80
2016,02,29,16,53,7.80
2016,02,29,16,54,7.80
2016,02,29,16,55,7.80
2016,02,29,16,56,7.80
2016,02,29,16,57,7.80
2016,02,29,16,58,7.80
2016,02,29,16,59,7.70
2016,02,29,17,00,7.70
2016,02,29,17,01,7.70
2016,02,29,17,02,7.80
2016,02,29,17,03,7.70
2016,02,29,17,04,7.70
2016,02,29,17,05,7.70
2016,02,29,17,06,7.70
2016,02,29,17,07,7.70
2016,02,29,17,08,7.70
2016,02,29,17,09,7.70
2016,02,29,17,10,7.70
2016,02,29,17,11,7.70
2016,02,29,17,12,7.70
2016,02,29,17,13,7.70
2016,02,29,17,14,7.70
2016,02,29,17,15,7.70
2016,02,29,17,16,7.70
2016,02,29,17,17,7.70
2016,02,29,17,18,7.70
2016,02,29,17,19,7.70
2016,02,29,17,20,7.70
2016,02,29,17,21,7.70
2016,02,29,17,22,7.70
2016,02,29,17,23,7.70
2016,02,29,17,24,7.70
2016,02,29,17,25,7.70
2016,02,29,17,26,7.60
2016,02,29,17,27,7.60
2016,02,29,17,28,7.60
2016,02,29,17,29,7.60
2016,02,29,17,30,7.60
2016,02,29,17,31,7.60
2016,02,29,17,32,7.60
2016,02,29,17,33,7.60
2016,02,29,17,34,7.60
2016,02,29,17,35,7.60
2016,02,29,17,36,7.60
2016,02,29,17,37,7.60
2016,02,29,17,38,7.60
2016,02,29,17,39,7.60
2016,02,29,17,40,7.60
2016,02,29,17,41,7.50
2016,02,29,17,42,7.50
2016,02,29,17,43,7.50
2016,02,29,17,44,7.50
2016,02,29,17,45,7.50
2016,02,29,17,46,7.50
2016,02,29,17,47,7.50
2016,02,29,17,48,7.50
2016,02,29,17,49,7.50
2016,02,29,17,50,7.50
2016,02,29,17,51,7.50
2016,02,29,17,52,7.50
2016,02,29,17,53,7.50
2016,02,29,17,54,7.40
2016,02,29,17,55,7.40
2016,02,29,17,56,7.40
2016,02,29,17,57,7.40
2016,02,29,17,58,7.40
2016,02,29,17,59,7.40
2016,02,29,18,00,7.40
2016,02,29,18,01,7.40
2016,02,29,18,02,7.40
2016,02,29,18,03,7.40
2016,02,29,18,04,7.40
2016,02,29,18,05,7.40
2016,02,29,18,06,7.30